Location: Unspecified
(0.0000°N, 0.0000°E)
Time: 10:08:44
(UTC+00:00)

S-56A Canister/Altair - All Passes

Search period start: 11 February 2026 00:00
Search period end: 21 February 2026 00:00
Orbit: 632 x 2485 km, 38.9° (Epoch: 10 February)

Date Brightness Start Highest point End Pass type
(mag) Time Alt. Az. Time Alt. Az. Time Alt. Az.
11 Feb - 06:58:28 10° NNW 07:09:40 27° NE 07:21:09 10° E daylight
11 Feb - 09:02:00 10° NW 09:17:06 76° NE 09:30:23 10° SE daylight
11 Feb - 11:10:13 10° WNW 11:23:21 39° SW 11:33:53 10° SSE daylight
11 Feb - 19:53:29 10° SSE 19:55:12 12° SE 19:56:54 10° ESE visible
11 Feb - 21:54:11 10° WSW 21:58:33 54° NW 22:03:57 10° NE night (unlit)
12 Feb - 06:23:40 10° N 06:33:40 23° NE 06:44:14 10° E daylight
12 Feb - 08:26:26 10° NW 08:41:11 67° NE 08:54:53 10° ESE daylight
12 Feb - 10:33:42 10° WNW 10:47:40 46° SW 10:59:10 10° SSE daylight
12 Feb - 12:51:54 10° SW 12:54:14 11° SW 12:56:27 10° SSW daylight
12 Feb - 21:19:26 10° SW 21:23:50 74° NW 21:28:58 10° NE visible
13 Feb - 05:49:09 10° N 05:57:40 19° NE 06:06:52 10° ENE visible
13 Feb - 07:51:02 10° NW 08:05:15 58° NE 08:19:12 10° ESE daylight
13 Feb - 09:57:24 10° WNW 10:11:55 54° SW 10:24:19 10° SSE daylight
13 Feb - 12:12:03 10° WSW 12:18:32 15° SW 12:24:16 10° S daylight
13 Feb - 20:44:43 10° SW 20:49:09 79° SE 20:53:58 10° NE visible
13 Feb - 22:52:16 10° NW 22:53:17 11° NNW 22:54:22 10° NNW night (unlit)
14 Feb - 05:15:03 10° N 05:21:41 15° NE 05:28:53 10° ENE visible
14 Feb - 07:15:47 10° NNW 07:29:19 51° NE 07:43:17 10° ESE daylight
14 Feb - 09:21:18 10° WNW 09:36:05 63° SW 09:49:17 10° SE daylight
14 Feb - 11:33:54 10° WSW 11:42:47 19° SW 11:50:32 10° S daylight
14 Feb - 20:10:03 10° SW 20:14:29 54° SE 20:18:58 10° ENE visible
14 Feb - 22:16:03 10° WNW 22:18:15 13° NNW 22:20:39 10° N night (unlit)
15 Feb - 04:41:55 10° NNE 04:45:43 12° NNE 04:49:46 10° NE visible
15 Feb - 06:40:41 10° NNW 06:53:24 44° NE 07:07:09 10° ESE daylight
15 Feb - 08:45:24 10° NW 09:00:12 72° SW 09:14:05 10° SE daylight
15 Feb - 10:56:22 10° W 11:06:59 23° SW 11:16:18 10° S daylight
15 Feb - 19:35:24 10° SSW 19:39:47 38° SE 19:43:56 10° ENE visible
15 Feb - 21:40:26 10° WNW 21:43:18 17° NW 21:46:26 10° N night (unlit)
16 Feb - 06:05:45 10° NNW 06:17:31 37° NE 06:30:46 10° ESE daylight
16 Feb - 08:09:42 10° NW 08:24:17 82° SW 08:38:44 10° SE daylight
16 Feb - 10:19:15 10° W 10:31:10 28° SW 10:41:46 10° SSE daylight
16 Feb - 19:00:47 10° SSW 19:05:01 28° SE 19:08:52 10° E visible
16 Feb - 21:05:02 10° W 21:08:27 22° NW 21:12:05 10° NNE visible
17 Feb - 05:31:01 10° NNW 05:41:43 31° NE 05:54:06 10° E visible
17 Feb - 07:34:11 10° NW 07:48:22 89° NE 08:03:12 10° SE daylight
17 Feb - 09:42:30 10° W 09:55:17 34° SW 10:07:01 10° SSE daylight
17 Feb - 18:26:11 10° SSW 18:30:12 22° SE 18:33:42 10° E daylight
17 Feb - 20:29:45 10° WSW 20:33:41 29° NW 20:37:39 10° NNE visible
18 Feb - 04:56:29 10° N 05:05:56 26° NE 05:17:06 10° E visible
18 Feb - 06:58:50 10° NW 07:12:26 79° NE 07:27:29 10° SE daylight
18 Feb - 09:06:03 10° WNW 09:19:22 40° SW 09:32:04 10° SSE daylight
18 Feb - 11:25:35 10° SW 11:27:34 10° SSW 11:29:29 10° SSW daylight
18 Feb - 17:51:36 10° S 17:55:15 18° SSE 17:58:26 10° ESE daylight
18 Feb - 19:54:32 10° WSW 19:58:58 41° NW 20:03:09 10° NNE visible
19 Feb - 04:22:11 10° N 04:30:14 21° NE 04:39:44 10° E visible
19 Feb - 06:23:39 10° NW 06:36:35 69° NE 06:51:36 10° ESE daylight
19 Feb - 08:29:53 10° WNW 08:43:25 46° SW 08:56:56 10° SSE daylight
19 Feb - 10:45:19 10° WSW 10:51:30 14° SSW 10:57:19 10° S daylight
19 Feb - 17:17:04 10° S 17:20:15 15° SSE 17:23:01 10° ESE daylight
19 Feb - 19:19:23 10° WSW 19:24:17 59° NW 19:28:37 10° NE visible
20 Feb - 03:48:18 10° N 03:54:35 16° NE 04:01:50 10° ENE visible
20 Feb - 05:48:38 10° NW 06:00:46 60° NE 06:15:32 10° ESE visible
20 Feb - 07:53:57 10° WNW 08:07:27 53° SW 08:21:40 10° SSE daylight
20 Feb - 10:07:03 10° WSW 10:15:26 17° SSW 10:23:21 10° S daylight
20 Feb - 16:42:38 10° S 16:45:08 12° SSE 16:47:22 10° SE daylight
20 Feb - 18:44:14 10° SW 18:49:37 84° NW 18:54:02 10° NE visible
